{"data":{"norad_id":89395,"epoch":"2026-05-21T08:37:31.213920Z","epoch_age_seconds":392618,"freshness":"STALE","line1":"1 89395U          26141.35938905  .00000321  00000+0  41029-2 0  9993","line2":"2 89395 102.3869 105.8325 0221902 213.8521 305.3084 12.01548929543913","mean_motion":12.01548929,"eccentricity":0.0221902,"inclination_deg":102.3869,"raan_deg":105.8325,"arg_perigee_deg":213.8521,"mean_anomaly_deg":305.3084,"bstar":0.0041029,"rev_number":54391,"period_min":119.84530677402,"perigee_km":1495.2558198634,"apogee_km":1852.6099010995,"semimajor_km":8052.0698604814,"source":"CELESTRAK","updated_at":"2026-05-25T13:38:11.781472Z"}}